User: anonymous   Login
Location: Unspecified
(0.0000°N, 0.0000°E)
Time: 20:39:34
(UTC+00:00)
Language:

COSMOS 2482 - Orbit

View from above orbital plane
View from above orbital plane
View from above satellite
View from above satellite

Ground track
Ground track

The orbit data is extracted from the following two-line orbital elements,

1 39057U 13001A   17172.72076374 +.00000044 +00000-0 +24515-3 0  9991
2 39057 082.4993 102.2813 0027433 347.5122 012.5277 12.42886347201003
Epoch (UTC): 21 June 2017 17:17:53
Eccentricity: 0.0027433
inclination: 82.4993°
perigee height: 1473 km
apogee height: 1516 km
right ascension of ascending node: 102.2813°
argument of perigee: 347.5122°
revolutions per day: 12.42886347
mean anomaly at epoch: 12.5277°
orbit number at epoch: 20100

The dashed part of the orbit path shows where the satellite is in the earth's shadow,  

DLR